Location: Clatteringshaws Loch
(55.0508°N, 4.2860°W)
Time: 20:29:00
(UTC+01:00)

Daily predictions for brighter satellites

Satellite Brightness Start Highest point End
(mag) Time Altitude Azimuth Time Altitude Azimuth Time Altitude Azimuth
NOSS 3-1 (C) 4.3 22:47:40 10° S 22:52:48 30° ESE 22:58:26 10° ENE
Cosmos 1666 Rocket 3.8 22:50:11 10° S 22:54:29 56° E 22:58:51 10° NNE
Cosmos 1328 3.9 22:50:41 10° SSW 22:54:39 83° WNW 22:58:39 10° N
Cosmos 1777 Rocket 4.3 22:51:32 10° SSW 22:56:49 77° WNW 23:02:06 10° NNE
Cosmos 1455 2.9 22:54:07 10° N 22:57:46 41° ENE 23:01:23 10° SE
GEOS 3 Rocket 3.8 22:52:39 10° ESE 22:57:52 74° NE 23:03:03 10° NW
Cosmos 1980 3.9 22:52:34 10° NNW 22:58:15 73° NE 23:03:54 10° SE
ARGOS 3.9 22:53:25 10° S 22:58:41 52° W 23:03:58 10° NNW
NOSS 0 Rocket 4.0 22:52:29 10° NW 22:58:41 87° NE 23:04:52 10° SE
BREEZE-M DEB (TANK) 3.5 22:59:08 10° WSW 23:00:36 17° S 23:02:26 10° SE
Cosmos 2058 2.9 22:56:37 10° S 23:00:43 85° ESE 23:04:52 10° NNE
H-2A R/B 2.3 22:59:45 10° SSE 23:05:07 78° WSW 23:10:37 10° NNW
Cosmos 2219 3.4 23:01:42 10° SSW 23:07:18 56° ESE 23:12:55 10° NE
Cosmos 1470 Rocket 4.4 23:03:54 10° SSE 23:07:49 35° E 23:11:45 10° NNE
Cosmos 1933 Rocket 4.4 23:05:20 10° SSE 23:09:24 36° E 23:13:29 10° NNE
Cosmos 2237 Rocket 2.3 23:06:03 10° NNW 23:11:48 81° NE 23:17:31 10° SE
Cosmos 2242 Rocket 4.0 23:14:29 10° NNW 23:18:54 63° W 23:23:20 10° S
Cosmos 1437 4.2 23:16:23 10° SW 23:19:31 39° WNW 23:22:39 10° N
CENTAUR R/B 4.1 23:13:34 10° W 23:20:08 46° N 23:27:28 10° ENE
IGS 5A 3.8 23:18:31 10° S 23:22:39 62° WSW 23:26:49 10° NNW
SL-14 R/B 3.4 23:20:29 10° SSW 23:24:27 82° WNW 23:28:30 10° N
Cosmos 1271 Rocket 3.3 23:21:15 10° NNW 23:24:58 54° W 23:28:43 10° S
Cosmos 2360 Rocket 4.1 23:21:05 10° NW 23:25:14 21° WSW 23:29:21 10° SSW
Cosmos 1703 3.3 23:21:41 10° S 23:25:33 64° E 23:29:26 10° NNE
USA 234 3.5 23:20:55 10° E 23:27:27 78° N 23:34:01 10° WNW
CZ-4B R/B 4.5 23:24:16 10° N 23:29:24 53° WNW 23:34:30 10° SW
Cosmos 1933 4.0 23:29:05 10° N 23:32:59 44° ENE 23:36:44 11° SE
DMSP B5D2-2 4.1 23:28:10 10° NNE 23:33:27 75° ESE 23:38:39 10° S
Cosmos 1726 3.7 23:30:27 10° NNW 23:33:48 30° W 23:37:09 10° SSW
USA 229 DEB 3.8 23:28:08 10° SW 23:35:07 87° NW 23:42:15 10° NE
USA 229 3.8 23:28:14 10° SW 23:35:14 88° NW 23:42:21 10° NE
Cosmos 389 Rocket 4.2 23:32:45 10° N 23:35:50 25° ENE 23:38:53 10° ESE
Cosmos 2150 Rocket 4.2 23:31:59 10° SSW 23:37:23 66° ESE 23:42:50 10° NNE
Cosmos 1898 Rocket 3.5 23:34:18 10° SSW 23:39:26 66° ESE 23:44:38 10° NNE
Cosmos 1048 Rocket 4.4 23:35:01 10° NNW 23:40:19 60° ENE 23:45:38 10° SE
Cosmos 1862 Rocket 3.7 23:37:13 10° NNW 23:41:36 75° W 23:45:50 11° S
Iridium 2 4.0 23:44:04 10° SSW 23:47:53 65° W 23:51:45 10° N
Nadezhda 1 Rocket 4.3 23:46:17 10° NNW 23:52:16 61° W 23:58:15 10° S
